• Processing (Info)

  • MPEC 2015-C75 : 2015 CK13

    The following Minor Planet Electronic Circular may be linked-to from your own Web pages, but must not otherwise be redistributed electronically.

    A form allowing access to any MPEC is at the bottom of this page.


    Read MPEC 2015-C74 Read MPEC 2015-C76


    M.P.E.C. 2015-C75                                Issued 2015 Feb. 14, 17:49 UT
    
         The Minor Planet Electronic Circulars contain information on unusual
             minor planets and routine data on comets.  They are published
       on behalf of Commission 20 of the International Astronomical Union by the
              Minor Planet Center, Smithsonian Astrophysical Observatory,
                              Cambridge, MA 02138, U.S.A.
    
                 Prepared using the Tamkin Foundation Computer Network
    
                                  MPC@CFA.HARVARD.EDU
                URL https://www.minorplanetcenter.net/    ISSN 1523-6714
    
                                       2015 CK13
    
    Observations:
         K15C13K* C2015 02 13.26830 09 31 35.59 +29 58 16.6                qEC075G96
         K15C13K  C2015 02 13.27139 09 31 31.36 +29 55 55.8          19.7 VqEC075G96
         K15C13K  C2015 02 13.27447 09 31 27.06 +29 53 37.8          20.8 VqEC075G96
         K15C13K  C2015 02 13.27755 09 31 22.87 +29 51 19.8          19.1 VqEC075G96
         K15C13K  C2015 02 13.41460 09 28 16.95 +28 05 31.0                qEC075G96
         K15C13K  C2015 02 13.41492 09 28 16.52 +28 05 15.6                qEC075G96
         K15C13K  C2015 02 13.41525 09 28 16.09 +28 05 00.1          19.1 VqEC075G96
         K15C13K  C2015 02 13.41557 09 28 15.65 +28 04 44.9          19.3 VqEC075G96
         K15C13K  C2015 02 13.45325 09 27 26.28 +27 34 41.1          19.4 VqEC075G96
         K15C13K  C2015 02 13.45352 09 27 25.94 +27 34 27.9          18.9 VqEC075G96
         K15C13K  C2015 02 13.45378 09 27 25.59 +27 34 14.2          20.6 VqEC075G96
         K15C13K  C2015 02 13.45561 09 27 23.29 +27 32 48.7          19.0 VqEC075G96
         K15C13K  C2015 02 13.45661 09 27 21.93 +27 31 57.9          19.5 VqEC075G96
         K15C13K  C2015 02 13.89372 09 19 12.81 +21 28 24.9          19.4 RqEC075246
         K15C13K  C2015 02 13.89392 09 19 12.50 +21 28 14.3                qEC075246
         K15C13K  C2015 02 13.89413 09 19 12.29 +21 28 03.1                qEC075246
         K15C13K  C2015 02 13.89563 09 19 10.21 +21 26 45.1                qEC075246
         K15C13K KC2015 02 14.27024 09 11 38.40 +15 52 00.9          19.8 RqEC075H36
         K15C13K KC2015 02 14.27510 09 11 31.92 +15 47 31.2          19.1 RqEC075H36
         K15C13K KC2015 02 14.27995 09 11 25.50 +15 43 00.6          18.9 RqEC075H36
         K15C13K  C2015 02 14.40639 09 08 44.03 +13 45 38.7          19.9 VqEC075I52
         K15C13K  C2015 02 14.40722 09 08 42.97 +13 44 51.3          19.8 VqEC075I52
         K15C13K  C2015 02 14.40763 09 08 42.44 +13 44 28.2          19.4 VqEC075I52
    
    Observer details:
    246 Klet Observatory-KLENOT.  Observers J. Ticha, M. Tichy, M. Kocer.
        Measurer M. Tichy.  1.06-m KLENOT Telescope + CCD.
    G96 Mt. Lemmon Survey.  Observer A. R. Gibbs.  Measurers E. J. Christensen,
        D. C. Fuls, A. R. Gibbs, A. D. Grauer, R. E. Hill, J. A. Johnson,
        R. A. Kowalski, S. M. Larson, R. G. Matheny, F. C. Shelly.  1.5-m
        reflector + CCD.
    H36 Sandlot Observatory, Scranton.  Observer G. Hug.  0.56-m reflector + CCD.
    I52 Steward Observatory, Mt. Lemmon Station.  Observer A. R. Gibbs.  Measurers
        E. J. Christensen, A. R. Gibbs, A. D. Grauer, R. E. Hill, J. A. Johnson,
        R. A. Kowalski, S. M. Larson, R. G. Matheny, F. C. Shelly.  1.0-m
        reflector + CCD.
    
    Orbital elements:
    2015 CK13                                                Earth MOID = 0.0186 AU
    Epoch 2014 Dec. 9.0 TT = JDT 2457000.5                  MPC
    M 292.34655              (2000.0)            P               Q
    n   0.75620055     Peri.  203.65435     -0.97012779     -0.17722429
    a   1.1931949      Node   324.83676     +0.24168304     -0.76518921
    e   0.1668355      Incl.   16.71745     -0.02100884     -0.61893216
    P   1.30           H   27.3           G   0.15           U   7
    Residuals in seconds of arc
    150213 G96  0.5+  0.4-    150213 G96  0.2+  0.6+    150213 246  0.6-  0.5-
    150213 G96 (0.3+  2.4-)   150213 G96  0.3+  0.4+    150214 H36  0.8-  0.7-
    150213 G96 (1.0-  1.9-)   150213 G96  0.1+  0.7-    150214 H36  0.9-  0.7-
    150213 G96  0.8-  1.2-    150213 G96 (1.0+  1.9+)   150214 H36 (0.4-  1.8-)
    150213 G96  0.2-  0.6+    150213 G96  0.1+  0.7-    150214 I52  0.1+  0.6+
    150213 G96  0.2-  0.5+    150213 246  0.8+  0.3+    150214 I52  0.3+  0.2+
    150213 G96  0.1-  0.7+    150213 246  0.1+  0.1+    150214 I52  0.4+  0.4+
    150213 G96  0.3-  0.7+    150213 246  1.0+  0.2-
    
    Ephemeris:
    2015 CK13                a,e,i = 1.19, 0.17, 17                  q = 0.9941
    Date    TT    R. A. (2000) Decl.     Delta      r     Elong.  Phase     V
    2015 01 15    13 27 18.6 +72 50 25   0.1670  1.0565   111.6    60.0    25.7
    ...
    2015 01 30    12 50 35.5 +71 10 17   0.08919 1.0274   116.2    59.4    24.2
    ...
    2015 02 07    11 26 32.1 +64 43 59   0.04765 1.0151   126.4    51.5    22.6
    ...
    2015 02 13    09 36 50.1 +33 13 44   0.02158 1.0076   160.3    19.3    20.0
    2015 02 14    09 17 00.6 +19 59 41   0.01933 1.0065   170.0     9.8    19.4
    2015 02 15    08 57 35.6 +04 19 52   0.01847 1.0054   164.0    15.7    19.5
    ...
    2015 02 21    07 21 28.3 -52 58 30   0.03728 0.9999   106.2    71.7    22.7
    ...
    2015 03 01    06 10 38.7 -66 00 56   0.07730 0.9953    91.2    84.4    24.7
    ...
    2015 03 16    05 14 02.5 -70 41 14   0.1514  0.9951    85.8    85.4    26.2
    
    A. U. Tomatic                (C) Copyright 2015 MPC           M.P.E.C. 2015-C75
    

    Read MPEC 2015-C74 Read MPEC 2015-C76


    MPEC number:

    Enter an MPEC number in one of the following forms:

    • 1997-B01 (the full form)
    • J97B01 (the packed version of the full form)
    • B01 (the abbreviated form)